Simultaneous Nadir Overpasses (SNOs) Predictions

Prediction of SNOs near US between AQUA and NPP Satellite Orbit:

Table of predicted SNOs near US for the next 10.0 days since TLE Epoch: 9/24/2016
Index Date (AQUA) Time (AQUA) AQUA Lat,Lon Date (NPP) Time (NPP) NPP Lat,Lon Distance(km) Time Diff (sec)
1 09/26/2016 08:34:25 20.66,-101.73 09/26/2016 08:26:15 20.70,-101.82 10.61 490
2 09/26/2016 10:10:48 29.69,-124.23 09/26/2016 10:05:09 29.84,-124.83 59.44 339
3 09/29/2016 07:18:18 49.91, -75.99 09/29/2016 07:20:43 50.32, -78.14 159.71 145
4 09/29/2016 08:57:11 49.92,-100.71 09/29/2016 09:02:10 50.49,-103.44 204.20 299
5 10/01/2016 18:16:28 49.95, -80.17 10/01/2016 18:11:02 49.71, -81.70 113.02 326
6 10/01/2016 19:55:21 49.95,-104.89 10/01/2016 19:52:30 49.59,-107.02 158.28 171
7 10/01/2016 21:30:31 36.65,-124.98 10/01/2016 21:30:08 36.16,-127.51 232.30 23




NCC Satellite Simultaneous Nadir Overpasses (SNOs) Prediction Service
